{"data":{"norad_id":41328,"epoch":"2026-09-18T14:23:00.114432Z","epoch_age_seconds":182319,"freshness":"STALE","line1":"1 41328U 16007A   26261.59930688  .00000005  00000+0  00000+0 0  9990","line2":"2 41328  55.5881  85.7564 0097723 247.2828 111.7321  2.00572654 77717","mean_motion":2.00572654,"eccentricity":0.0097723,"inclination_deg":55.5881,"raan_deg":85.7564,"arg_perigee_deg":247.2828,"mean_anomaly_deg":111.7321,"bstar":0,"rev_number":7771,"period_min":717.94433153385,"perigee_km":19921.863982644,"apogee_km":20440.959741332,"semimajor_km":26559.548861988,"source":"CELESTRAK","updated_at":"2026-09-20T09:00:46.119175Z"}}